India Forums Logo

Miley Jab Hum Tum

India Forums > Forum Index > Miley Jab Hum Tum
College days are here to stay as Star One launches Miley Jab Hum Tum....
...
<< | 523 | 524 | 525 | 526 | 527 | 528 | 529 | 530 | 531 | 532 | 533 | 534 | 535 | 536 | 537 | 538 | 539 | 540 | >>
TIDTopic SubjectStart DateLast Entry
3856521new tc article about mohit sehgal.12/21/2013 6:54:18 AM12/22/2013 12:39:54 AM
3857559Living in NIGHTMARE (MN HORROR) PART 18 PG 3 22/1212/22/2013 9:12:53 AM10/17/2014 1:07:02 AM
3857901Wholesale ..............12/22/2013 9:59:08 PM12/22/2013 9:59:08 PM
3857917I've told Mohit, I'm going to take him down: Sanaya-HT12/22/2013 10:21:08 PM12/23/2013 2:58:41 AM
3859483msg for mohit sehgal and wishes for hin in itvf !12/24/2013 2:35:20 AM12/24/2013 10:23:27 AM
3860403Arjun Bijlani's 1st Shortfilm-"I GUESS" is RELEASED ONLINE!!12/24/2013 2:40:45 PM1/25/2014 11:03:37 AM
3860458TV actors share their Xmas plans : Mohit12/24/2013 6:45:39 PM12/25/2013 4:57:58 AM
3862200guys, mohit tagged in a tb article12/26/2013 4:26:57 AM12/26/2013 12:42:06 PM
3862517::.Happy Birthday Rukma(fend).::12/26/2013 8:29:05 AM2/11/2014 7:09:16 AM
3863029Should I watch this show?12/26/2013 4:30:01 PM12/29/2013 9:41:07 AM
3863550sanaya's new article12/27/2013 4:33:27 AM12/27/2013 4:33:27 AM
3863684I want Gauhar Khan to win!: Sanaya TB article Monaya tagged.12/27/2013 6:48:40 AM12/27/2013 6:48:40 AM
3864151Mayur FF-Dil Ke Naazuk Dhaage#3 Pt-73/Pg-14212/27/2013 12:08:32 PM7/17/2014 11:38:28 AM
3865462Sanaya in Big Boss Finale [Vid+*HQ Caps @ P-03]12/28/2013 11:50:20 AM12/31/2013 2:32:43 PM
3865492I am going crazy for this title track12/28/2013 12:10:43 PM12/31/2013 12:08:29 AM
3866080OMG! Mohit to perform in Doli Armano ki12/29/2013 4:34:13 AM12/30/2013 2:25:47 PM
3867036Sanaya new interview12/30/2013 4:06:36 AM12/30/2013 8:32:13 AM
3867100Sanaya Irani new TB interview Monaya tagged.12/30/2013 5:28:04 AM12/30/2013 5:28:04 AM
3867686Request for sajan fans or VM maker who r interested12/30/2013 11:02:25 AM1/11/2014 11:04:25 PM
3868236Most searched TV celebs on the Net /Sanaya : TOI12/31/2013 1:14:30 AM1/1/2014 5:10:10 PM
3868334TV celebs share their New Year plans : Mohit12/31/2013 3:07:56 AM12/31/2013 10:51:54 AM
3868438MoNaya New Year Plan : SBS [Vid+WU]12/31/2013 4:25:53 AM1/1/2014 9:31:28 PM
3868542MoNaya ~ Memories of 2013 ~12/31/2013 6:06:26 AM1/5/2014 11:41:24 PM
3868610Male Celebrities selects sexiest female Hot bod of2013 TV12/31/2013 7:02:18 AM12/31/2013 7:51:16 AM
3870124~~Happy Birthday Rija[gunnur_luv] Api~~1/1/2014 12:26:45 PM1/22/2014 1:56:21 PM
3870526monaya at RR's launch party1/2/2014 1:08:11 AM1/11/2014 6:00:33 AM
3871334sanaya's RR article, mohit mentioned!1/2/2014 12:48:13 PM1/6/2014 7:46:47 AM
3872784Monaya1/3/2014 9:54:59 PM1/6/2014 7:48:45 AM
3874928sanaya's article- a ques on mohit1/6/2014 5:50:04 AM1/7/2014 12:18:39 PM
3876027old monaya article bt loved it a lot!!1/7/2014 1:52:25 AM1/7/2014 10:12:35 AM
3876392Unseen Pics Of AB's Digjam Suits Print AD's Photoshoot[Year-2011]1/7/2014 7:49:20 AM1/21/2014 4:26:10 AM
3878506just found a similarity btwn mjht n F.R.I.E.N.D.S1/9/2014 2:39:30 AM1/10/2014 2:35:17 AM
3878524sanaya's interview with raj!1/9/2014 3:03:55 AM1/10/2014 12:06:41 PM
3878635TV couples who should get married in 20141/9/2014 5:11:28 AM1/11/2014 5:57:04 AM
3879704Arjun's Cool, cosy and contemporary space1/10/2014 1:44:05 AM1/12/2014 5:48:31 AM
3879779guys, take dis poll for monaya1/10/2014 3:09:04 AM1/10/2014 8:46:13 AM
3880531munisha khatwani abt sanaya's future1/10/2014 1:20:36 PM1/11/2014 4:47:45 PM
3880915celebrity bawarchi-sanaya!1/11/2014 2:06:07 AM1/18/2014 4:09:37 AM
3881588Forever on screen couple on demand MayUr - SaJan mention1/11/2014 11:51:49 PM1/18/2014 3:56:47 AM
3881668Sanaya irani : Interview1/12/2014 1:44:36 AM1/18/2014 5:06:11 AM
3881683New Article:Bromance On TV Mohit-Arjun-JasKaran-Abhishek Mentioned1/12/2014 2:11:10 AM1/18/2014 6:28:57 AM
3881907New Article: Rati among the most missed actors on TV.1/12/2014 7:33:43 AM1/18/2014 4:15:35 AM
3882500vote for SaJan...losing1/13/2014 2:00:27 AM1/13/2014 2:00:27 AM
3882675Jodi1/13/2014 4:44:21 AM1/13/2014 8:22:12 AM
3884632MJHT all episodes on Star Classics1/14/2014 1:46:58 PM2/5/2014 2:15:08 AM
3887016monaya umbrella again see after a long tym1/16/2014 10:23:06 AM2/16/2014 11:34:54 AM
3888117Scintillating Dances On TV-Mayank, Nupur, Samrat & Gunjan mentione1/17/2014 8:48:27 AM1/17/2014 8:48:27 AM
3888121Sensational and Sizziling Dance Sequences(khuda jaane mentioned)1/17/2014 8:49:32 AM1/27/2014 7:58:11 AM
3888247mjht reached 8 lakh fans!!1/17/2014 9:55:30 AM1/20/2014 2:13:24 AM
3888432Mayur SS-Love Haapens Pt 12/Pg-69*Completed*1/17/2014 12:12:32 PM11/20/2014 12:58:15 PM
3889960new unseen pic of Monaya !1/19/2014 8:43:20 AM1/25/2014 2:24:41 PM
3892261MayUr SS - Hongey Juda Na Hum Last Chapter , PG - 91.1/21/2014 9:44:59 AM4/24/2014 1:53:56 PM
3893084Sajan~ roshni se--sbs seg added1/22/2014 3:22:35 AM2/23/2014 3:51:46 AM
3895087plzz do comment in Mohit's profile1/23/2014 10:47:10 AM1/24/2014 7:19:29 AM
3899794Top 5 Love stories - MJHT :D1/28/2014 2:53:05 AM1/29/2014 9:46:23 PM
3900143New:Top 5 Love Stories- Samart-Gunjan,Mayank-Nupur Mentioned.1/28/2014 7:48:58 AM2/5/2014 2:17:13 AM
3901198A Roller Coaster Journery From Being Newbie to IF-Addictz!!!1/29/2014 6:19:55 AM2/3/2014 3:20:28 PM
3902130MAYUR SS: LIFE HAPPENS UPD PART5-PG11 1/21/30/2014 1:04:34 AM11/30/2015 5:10:25 AM
3902476New:Gorgeous TV Actresses In Western Outfits Sanaya & Rati Mention1/30/2014 8:15:07 AM1/30/2014 8:15:07 AM
3904914Are u happy for our sammmy mohit sehgal?2/1/2014 8:16:44 AM2/3/2014 10:34:29 AM
3908214MayUr FF - Kaisa Yeh Ishq Hai CHAPTER - 9 , PG - 76.2/4/2014 12:01:03 PM5/3/2015 7:22:15 AM
3908221New Article - Dupatta Love Stories Mayank and Nupur mentioned.2/4/2014 12:04:05 PM2/5/2014 1:53:44 PM
3911538Roses Day article:Mohit2/7/2014 7:47:05 AM2/9/2014 7:20:00 AM
3913378SOME MJHT VMS I MADE2/9/2014 1:22:29 AM2/9/2014 7:49:47 AM
3913798"I wake up half n hour late on a Sunday" : Mohit Sehgal2/9/2014 11:18:56 AM2/13/2014 10:38:39 AM
3915360New-TV Jodis:Promise Day Spl Mayank-Nupur, Samrat-Gunjan2/11/2014 12:52:00 AM2/11/2014 11:32:38 PM
3915815Arjun's tweeted pic !2/11/2014 8:26:37 AM2/14/2014 11:20:17 PM
3916677~Last one to post loves Mohit the most~ No.62/12/2014 3:16:33 AM7/1/2014 3:17:27 AM
3917634On screen jodos of tv wolud like to see again Monaya/Sajan2/12/2014 9:21:28 PM2/16/2014 12:53:16 PM
3918009TV actos on valantine.s what valantine mean to them:Sanaya2/13/2014 4:27:44 AM2/16/2014 1:40:09 PM
3919095Love story: Sanaya Irani n Mohit Sehgal [India TV]2/14/2014 12:15:43 AM2/17/2014 8:05:26 AM
3919123Mohit-Sanaya plan to spend a quiet evening together [Imp. @ P-07]2/14/2014 12:48:50 AM2/22/2014 4:51:17 AM
3919438Sanaya and I took almost six months to be friends-Mohit2/14/2014 6:08:34 AM2/16/2014 1:31:31 PM
3919631Omg..I-F new Monaya interview ! God bless Monaya.2/14/2014 8:23:47 AM2/14/2014 8:58:25 AM
3919649MoNaya speak abt their love equation and compatibility:TB [*Caps add]2/14/2014 8:33:03 AM2/22/2014 8:22:26 AM
<< | 523 | 524 | 525 | 526 | 527 | 528 | 529 | 530 | 531 | 532 | 533 | 534 | 535 | 536 | 537 | 538 | 539 | 540 | >>